KNUWKFHR

Guest
Details From KNUW - WHIDBEY ISLAND NAS
To KFHR - FRIDAY HARBOR
Flight Number -
Tags decoded
Created
Modified
Stats Distance 18 nm / 33 km
Max Altitude 0 ft / 0 m
Waypoints 2
Social Downloads 0
Likes 0
Share VATSIM

Download

Looking for another format? Having issues loading an existing format? Contact us
Advertisement - Login to hide

Notes

Requested: KNUW YYJ KFHR

Route

KNUW KFHR

ID Type Via Altitude Latitude Longitude Leg Dist Tot Dist Heading (true) Name
O KNUW APT - 0 ft / 0 m 48.35180˚ -122.65591˚ - 0 nm - WHIDBEY ISLAND NAS
O KFHR APT - 0 ft / 0 m 48.52197˚ -123.02437˚ 17 nm 17 nm 305° / 305° FRIDAY HARBOR

Altitude Profile

Advertisement - Login to hide

KNUW

Details ICAO KNUW (NUW)
Name WHIDBEY ISLAND NAS
Region United States
Timezone America/Los_Angeles (UTC-7.0)
Stats Elevation 47 ft / 14 m (AMSL)
Location 48.351803° -122.655907°
Runways 2
Magnetic Variation 15.902° E

METAR

KNUW 211256Z 24007KT 10SM FEW006 FEW025 SCT050 BKN250 11/08 A3010 RMK AO2 SLP191 T01060083 $

Decode

TAF

TAF AMD KNUW 2109/2207 23008G15KT 9999 FEW009 SCT020 BKN035 QNH3002INS TEMPO 2113/2119 VRB06KT 3200 BR BKN007 FM212200 26009KT 9999 SKC QNH3000INS T11/2111Z T17/2123Z AMD 0940 FS30037

Decode

Departure Runways

ID Width Length Bearing (true) Bearing (mag) Surface Threshold Offset Overrun Length
07 200 ft / 61 m 7,977 ft / 2,432 m 86.95° 71.05° Concrete 0 ft / 0 m 1,000 ft / 305 m
13 200 ft / 61 m 7,999 ft / 2,438 m 154.71° 138.81° Concrete 0 ft / 0 m 1,000 ft / 305 m
25 200 ft / 61 m 7,977 ft / 2,432 m 266.97° 251.07° Concrete 0 ft / 0 m 1,000 ft / 305 m
31 200 ft / 61 m 7,999 ft / 2,438 m 334.72° 318.82° Concrete 0 ft / 0 m 1,000 ft / 305 m

KFHR

Details ICAO KFHR (FRD)
Name FRIDAY HARBOR
Region United States
Timezone America/Los_Angeles (UTC-7.0)
Stats Elevation 113 ft / 34 m (AMSL)
Location 48.521966° -123.024368°
Runways 1
Magnetic Variation 16.008° E

METAR

KFHR 211253Z AUTO 00000KT 10SM OVC043 09/08 A3006 RMK AO2 SLP180 T00940083 TSNO

Decode

TAF

Not found

Destination Runways

ID Width Length Bearing (true) Bearing (mag) Surface Threshold Offset Overrun Length
16 75 ft / 23 m 3,402 ft / 1,037 m 177.06° 161.05° Asphalt 0 ft / 0 m 0 ft / 0 m
34 75 ft / 23 m 3,402 ft / 1,037 m 357.06° 341.05° Asphalt 0 ft / 0 m 0 ft / 0 m

Popular Alternatives